[[{"header":{"parameterUnit":"m.s-1","parameterCategory":1,"la1":30.2991,"la2":30.254,"lo1":-89.0895,"lo2":-89.0444,"dy":0.0017,"dx":0.0017,"nx":28,"ny":28,"refTime":"2024-07-04T03:00:00:Z","depth":0,"parameterNumber":2,"parameterNumberName":"U-component_of_WINDS"},"data":[0,0,0,0,0,0,0,0,0,0,0,0,0,0,0,0,0,0,0,0,0,0,0,0,0,0,0,0,0,0,0,0,0,0,0,0,0,0,0,0,0,0,0,0,0,0,0,0,0,0,0,0,0,0,0,0,0,0,2.1069,2.107,0,2.1079,2.1079,2.1079,2.1035,2.1034,2.1033,2.1031,2.1041,2.1042,2.1043,0,0,0,0,0,0,0,0,0,0,0,0,0,2.1012,2.1014,2.1069,2.107,2.107,2.1079,2.1079,2.1079,2.1035,2.1034,2.1032,2.1031,2.104,2.1042,2.1043,0,0,0,0,0,0,0,0,0,0,0,0,0,2.1031,2.1014,2.1069,2.1049,2.1047,2.1079,2.1079,2.1079,2.1036,2.1034,2.1032,2.103,2.1039,2.1042,2.1044,2.1095,0,0,2.105,2.1051,0,0,0,0,0,0,0,0,2.103,2.1033,2.1052,2.105,2.1049,2.1054,2.1062,2.1084,2.1036,2.104,2.1031,2.1029,2.1046,2.1048,2.1054,2.1095,2.1096,2.105,2.1052,2.1053,2.1053,0,0,0,0,0,0,0,2.1029,2.1032,2.1073,2.1052,2.105,2.1039,2.1039,2.1066,2.1054,2.104,2.1036,2.1038,2.1045,2.1052,2.1054,2.1096,2.105,2.1052,2.1054,2.1054,2.1176,2.1178,0,0,0,0,0,0,2.103,2.1032,2.1073,2.1073,2.1034,2.1041,2.1042,2.1054,2.1053,2.1051,2.104,2.1036,2.1049,2.1051,2.1054,2.1111,2.1053,2.1055,2.1056,2.1174,2.1177,2.1179,0,0,0,0,0,0,2.1029,2.1034,2.1072,2.1052,2.1056,2.1044,2.1058,2.1055,2.1062,2.1054,2.1051,2.1049,2.1048,2.1051,2.1084,2.111,2.1056,2.1058,2.1172,2.1175,2.1178,2.1227,0,0,0,0,0,0,2.1028,2.1034,2.1054,2.1052,2.1057,2.1103,2.106,2.1057,2.1066,2.1061,2.1061,2.106,2.1046,2.1081,2.1086,2.1112,2.1059,2.117,2.1173,2.1177,2.1223,2.1231,2.1238,0,0,0,0,0,2.1026,2.1069,2.1055,2.1061,2.1082,2.1105,2.1107,2.1091,2.1068,2.1087,2.1081,2.106,2.1108,2.1085,2.109,2.1118,2.1168,2.1172,2.1177,2.1219,2.123,2.1238,0,0,0,0,0,0,2.1074,2.1068,2.1053,2.1097,2.1102,2.1098,2.1121,2.1103,2.1115,2.111,2.109,2.109,2.1126,2.1126,2.1101,2.1165,2.1133,2.1139,2.1164,2.1174,2.1181,2.1179,2.1061,0,0,0,0,0,2.109,2.111,2.1103,2.1142,2.1145,2.1133,2.1143,2.113,2.1134,2.1136,2.1133,2.1137,2.1153,2.1164,2.1178,2.1223,2.1221,2.1245,2.1252,2.1259,2.1263,2.1283,2.1293,2.1193,2.1193,2.1193,0,0,2.1123,2.1122,2.1135,2.1152,2.1154,2.1173,2.1135,2.1159,2.1172,2.1139,2.1169,2.1168,2.1171,2.121,2.1227,2.1211,2.129,2.1264,2.1269,2.127,2.1289,2.1298,2.1307,2.1196,2.1196,2.1195,0,0,2.1191,2.1194,2.1224,2.1227,2.1231,2.1222,2.1229,2.1228,2.1225,2.1255,2.123,2.1246,2.1275,2.1277,2.1282,2.135,2.1329,2.1355,2.1395,2.1415,2.1423,2.143,2.1451,2.1459,2.136,2.136,2.1361,0,2.1231,2.126,2.1243,2.1267,2.1273,2.1244,2.1274,2.1278,2.1286,2.1291,2.1273,2.1305,2.1306,2.1343,2.136,2.1366,2.1372,2.1354,2.1423,2.143,2.1436,2.1456,2.1464,2.1363,2.1363,2.1363,2.1362,0,2.1307,2.1327,2.1352,2.1359,2.1369,2.1396,2.1382,2.1394,2.138,2.1373,2.1402,2.1402,2.1414,2.1423,2.1411,2.1458,2.1447,2.1427,2.1393,2.1448,2.1466,2.1474,2.1367,2.1366,2.1366,2.1365,0,0,2.1406,2.1402,2.1411,2.1412,2.1413,2.1428,2.1454,2.1465,2.1474,2.1481,2.1499,2.1523,2.1504,2.1509,2.1497,2.1515,2.1565,2.1492,2.1492,2.1503,2.1613,2.1626,2.1636,2.1552,2.1553,2.1555,2.1612,0,2.147,2.1512,2.1496,2.1539,2.1556,2.1528,2.1549,2.1551,2.1545,2.1558,2.1552,2.1567,2.1542,2.1545,2.1562,2.1555,2.1586,2.1551,2.1567,2.1568,2.1564,2.1645,2.166,2.1714,2.1619,2.162,2.1621,0,2.1551,2.1559,2.1603,2.1598,2.1604,2.1624,2.1631,2.1645,2.1647,2.1641,2.1646,2.1629,2.1652,2.1621,2.1651,2.1627,2.1633,2.1631,2.1632,2.1631,2.1596,2.1643,2.1731,2.1738,2.1633,2.1632,2.1631,0,2.1614,2.1636,2.1664,2.1667,2.1663,2.1677,2.1676,2.1676,2.1683,2.169,2.1693,2.1704,2.1709,2.1717,2.1702,2.1681,2.1733,2.1701,2.1727,2.1727,2.1737,2.1736,2.1824,2.1746,2.1746,2.1746,2.1745,0,2.1686,2.1713,2.1692,2.1709,2.1738,2.172,2.1749,2.1745,2.1744,2.1759,2.1737,2.1751,2.1733,2.1745,2.1734,2.1759,2.1762,2.1756,2.1753,2.1757,2.1757,2.1758,2.1753,2.1748,2.1747,2.1747,2.1746,0,2.176,2.1748,2.1776,2.177,2.1768,2.179,2.1784,2.1799,2.1791,2.181,2.1813,2.1801,2.1814,2.1801,2.1814,2.1806,2.1838,2.1831,2.1837,2.1834,2.1859,2.1855,2.1948,2.1958,2.1877,2.1878,2.1879,0,2.1805,2.1825,2.182,2.1828,2.1828,2.1842,2.1848,2.1831,2.1838,2.184,2.1854,2.1866,2.1873,2.1895,2.1887,2.1896,2.1887,2.1919,2.1888,2.189,2.1883,2.1881,2.1882,2.1924,2.1925,2.1926,2.1927,0,2.1885,2.1878,2.1888,2.1895,2.1903,2.1908,2.1911,2.1919,2.1901,2.1911,2.1923,2.1929,2.1941,2.1952,2.1958,2.1957,2.1938,2.1937,2.1942,2.1945,2.1947,2.1943,2.1851,2.1934,2.1933,2.1933,2.1932,2.1932,2.1944,2.1959,2.1957,2.1968,2.1969,2.1972,2.1984,2.1977,2.1988,2.1995,2.1985,2.2,2.1999,2.2005,2.2006,2.2017,2.2003,2.2012,2.2014,2.2016,2.2018,2.1947,2.2018,2.2018,2.2018,2.2018,2.2017,0,2.202,2.2017,2.2027,2.2032,2.204,2.2022,2.2024,2.2032,2.2045,2.2046,2.2054,2.2067,2.2077,2.2069,2.2077,2.2087,2.2078,2.2089,2.2087,2.2086,2.2031,2.2024,2.2096,2.2096,2.2096,2.2096,2.2096,2.2096,2.206,2.2083,2.2075,2.2098,2.2095,2.2108,2.2111,2.2113,2.2113,2.2128,2.2136,2.2131,2.2128,2.2135,2.2142,2.214,2.2142,2.2156,2.215,2.2098,2.209,2.2083,2.2076,2.2157,2.2157,2.2203,2.2204,2.2204]},{"header":{"parameterUnit":"m.s-1","parameterCategory":1,"la1":30.2991,"la2":30.254,"lo1":-89.0895,"lo2":-89.0444,"dy":0.0017,"dx":0.0017,"nx":28,"ny":28,"refTime":"2024-07-04T03:00:00:Z","depth":0,"parameterNumber":3,"parameterNumberName":"V-component_of_WINDS"},"data":[0,0,0,0,0,0,0,0,0,0,0,0,0,0,0,0,0,0,0,0,0,0,0,0,0,0,0,0,0,0,0,0,0,0,0,0,0,0,0,0,0,0,0,0,0,0,0,0,0,0,0,0,0,0,0,0,0,0,3.2272,3.2273,0,3.233,3.2331,3.2331,3.2282,3.228,3.2278,3.2276,3.2332,3.2335,3.2339,0,0,0,0,0,0,0,0,0,0,0,0,0,3.2117,3.212,3.2272,3.2273,3.2274,3.233,3.2331,3.2331,3.2282,3.2279,3.2277,3.2275,3.2331,3.2335,3.2339,0,0,0,0,0,0,0,0,0,0,0,0,0,3.218,3.2121,3.2272,3.2256,3.2255,3.233,3.2331,3.2332,3.2282,3.2279,3.2276,3.2273,3.2329,3.2334,3.2339,3.2432,0,0,3.2355,3.2357,0,0,0,0,0,0,0,0,3.2177,3.2186,3.2258,3.2257,3.2256,3.2296,3.2296,3.2365,3.2283,3.2272,3.2276,3.2272,3.2322,3.2328,3.2345,3.2435,3.2437,3.2356,3.2359,3.2361,3.2362,0,0,0,0,0,0,0,3.2172,3.2183,3.2295,3.2259,3.2258,3.2245,3.225,3.2309,3.2313,3.2273,3.2269,3.2277,3.2321,3.234,3.2346,3.2438,3.2355,3.236,3.2363,3.2365,3.2606,3.2609,0,0,0,0,0,0,3.217,3.218,3.2293,3.2297,3.2208,3.225,3.2256,3.2286,3.2313,3.2314,3.2279,3.2274,3.2333,3.234,3.2348,3.2457,3.2361,3.2366,3.2369,3.2602,3.2606,3.261,0,0,0,0,0,0,3.2167,3.2181,3.2291,3.2237,3.2251,3.2256,3.229,3.2289,3.2308,3.2318,3.2318,3.2298,3.2331,3.2341,3.2412,3.2459,3.2368,3.2373,3.2598,3.2604,3.2608,3.2678,0,0,0,0,0,0,3.2163,3.218,3.2216,3.2239,3.2254,3.2355,3.2293,3.2292,3.2317,3.2311,3.2336,3.2337,3.2329,3.2404,3.2417,3.2464,3.2377,3.2594,3.2601,3.2607,3.2671,3.2685,3.2696,0,0,0,0,0,3.2157,3.2233,3.2218,3.2232,3.2299,3.2358,3.2366,3.2357,3.2321,3.2357,3.2363,3.2336,3.2452,3.2412,3.2425,3.2475,3.2591,3.2599,3.2606,3.2666,3.2682,3.2696,0,0,0,0,0,0,3.2215,3.2236,3.2219,3.2305,3.233,3.2349,3.2394,3.2374,3.2409,3.2402,3.2388,3.2394,3.2469,3.2479,3.2434,3.2566,3.2515,3.2526,3.2556,3.2572,3.2584,3.2579,3.2381,0,0,0,0,0,3.2238,3.2285,3.23,3.2374,3.2387,3.2389,3.2414,3.2405,3.243,3.244,3.2451,3.2476,3.2517,3.2545,3.2584,3.2673,3.2677,3.2713,3.2726,3.2736,3.2745,3.2791,3.2807,3.2635,3.2635,3.2634,0,0,3.2285,3.2302,3.2333,3.2386,3.2404,3.2452,3.2398,3.2451,3.2486,3.2447,3.2515,3.2524,3.2551,3.2631,3.2666,3.2642,3.2793,3.2745,3.2753,3.2757,3.28,3.2817,3.2831,3.264,3.2639,3.2638,0,0,3.2395,3.2414,3.2477,3.2497,3.2525,3.2526,3.2541,3.2563,3.2568,3.2636,3.2608,3.2648,3.2721,3.2741,3.276,3.2878,3.2853,3.2891,3.2955,3.3,3.3013,3.3025,3.3066,3.3081,3.29,3.29,3.29,0,3.245,3.2522,3.2512,3.2567,3.259,3.2559,3.2622,3.2641,3.2681,3.2697,3.2669,3.2759,3.2774,3.2858,3.2886,3.2904,3.2919,3.2887,3.3013,3.3024,3.3035,3.3074,3.309,3.2904,3.2904,3.2903,3.2903,0,3.2588,3.2638,3.2685,3.2725,3.2754,3.2813,3.281,3.2841,3.2829,3.2832,3.29,3.2918,3.296,3.2979,3.2967,3.3061,3.3044,3.3015,3.2964,3.3056,3.3092,3.3107,3.291,3.2909,3.2907,3.2906,0,0,3.2736,3.2769,3.2787,3.2804,3.2833,3.2871,3.2928,3.2969,3.2995,3.3023,3.307,3.3132,3.3104,3.3127,3.3117,3.3157,3.3247,3.3122,3.3123,3.3144,3.335,3.3371,3.3389,3.3232,3.3235,3.3237,3.3347,0,3.2847,3.2947,3.2939,3.3032,3.3078,3.3048,3.3097,3.312,3.3124,3.3162,3.3166,3.321,3.3172,3.3184,3.3223,3.3228,3.3288,3.322,3.3274,3.3276,3.3267,3.3408,3.3431,3.3534,3.3361,3.3364,3.3365,0,3.2989,3.3023,3.3122,3.3144,3.3162,3.3207,3.3244,3.3281,3.3306,3.3306,3.3331,3.3314,3.337,3.3318,3.3394,3.3348,3.337,3.3376,3.3379,3.3383,3.3326,3.3415,3.3567,3.3582,3.3388,3.3386,3.3384,0,3.3086,3.3157,3.3225,3.324,3.3267,3.3299,3.3312,3.3333,3.3359,3.339,3.3406,3.3444,3.3465,3.3494,3.3487,3.345,3.3565,3.3513,3.3565,3.3565,3.359,3.3588,3.3747,3.3605,3.3605,3.3605,3.3604,0,3.3211,3.3272,3.3268,3.331,3.3377,3.3367,3.3434,3.3442,3.3462,3.3503,3.348,3.3519,3.3509,3.3548,3.3543,3.3606,3.3616,3.3616,3.3614,3.3618,3.3618,3.3631,3.3624,3.3609,3.3608,3.3607,3.3606,0,3.333,3.333,3.3402,3.3422,3.3428,3.3477,3.3493,3.3532,3.3534,3.3588,3.3599,3.3603,3.3647,3.3644,3.3694,3.369,3.3768,3.3758,3.376,3.3758,3.381,3.3805,3.3982,3.4004,3.3849,3.3851,3.3852,0,3.3409,3.3455,3.348,3.3507,3.3522,3.3565,3.3591,3.3582,3.361,3.3641,3.3675,3.3718,3.3751,3.3824,3.383,3.3867,3.3857,3.3917,3.3863,3.3865,3.3857,3.3854,3.3858,3.3927,3.3929,3.393,3.3931,0,3.3548,3.3546,3.3584,3.3623,3.3654,3.3684,3.3711,3.3734,3.3728,3.3759,3.3805,3.3831,3.3882,3.3924,3.396,3.3971,3.395,3.3949,3.3962,3.3967,3.3966,3.3966,3.3788,3.3944,3.3943,3.3942,3.3941,3.3941,3.3649,3.3688,3.3712,3.3755,3.3775,3.3801,3.3838,3.3845,3.3883,3.3924,3.3917,3.3968,3.399,3.4036,3.4051,3.409,3.4068,3.4089,3.4094,3.4099,3.4104,3.396,3.4097,3.4096,3.4096,3.4095,3.4095,0,3.3786,3.38,3.384,3.3878,3.3912,3.3891,3.3919,3.3948,3.3994,3.4017,3.405,3.4102,3.4143,3.4152,3.4191,3.422,3.4211,3.423,3.4227,3.423,3.4122,3.4106,3.4237,3.4237,3.4237,3.4237,3.4237,3.4237,3.3861,3.3927,3.3927,3.4002,3.4015,3.4065,3.4083,3.4107,3.4125,3.4184,3.4218,3.4224,3.4241,3.4281,3.4317,3.4318,3.4333,3.4356,3.4354,3.4252,3.4238,3.4224,3.4209,3.436,3.436,3.4459,3.4459,3.446]}]]